EW7239 Weather Reports


time (UTC)temp
C
wind
direction
speed
KPH
gust
KPH
rain 1hr
cm
rain 24hr
cm
rain mn
cm
humidity
%
barometer
mb
20260905202935 33 234 4.8 12.9 0.00 0.00 0.00 22 1013.6
20260905202207 33 215 4.8 11.3 0.00 0.00 0.00 20 1013.7
20260905201702 33 211 3.2 11.3 0.00 0.00 0.00 23 1013.8
20260905201200 33 207 4.8 11.3 0.00 0.00 0.00 21 1013.9
20260905200701 33 219 4.8 11.3 0.00 0.00 0.00 21 1014.0
20260905200157 33 237 4.8 9.7 0.00 0.00 0.00 22 1014.0
20260905195658 33 237 6.4 9.7 0.00 0.00 0.00 23 1014.1
20260905195157 33 229 3.2 9.7 0.00 0.00 0.00 24 1014.1
20260905194656 32 218 3.2 9.7 0.00 0.00 0.00 22 1014.2
20260905194154 32 218 4.8 9.7 0.00 0.00 0.00 23 1014.3
20260905193653 32 218 6.4 11.3 0.00 0.00 0.00 24 1014.4
20260905193426 32 218 4.8 11.3 0.00 0.00 0.00 22 1014.4
20260905192652 32 219 3.2 11.3 0.00 0.00 0.00 24 1014.5
20260905192153 32 219 4.8 11.3 0.00 0.00 0.00 24 1014.6
20260905191648 32 219 3.2 9.7 0.00 0.00 0.00 25 1014.6
20260905191148 32 218 3.2 6.4 0.00 0.00 0.00 25 1014.6
20260905190649 31 219 3.2 9.7 0.00 0.00 0.00 25 1014.6
20260905190148 31 219 4.8 9.7 0.00 0.00 0.00 25 1014.7
20260905185645 30 219 4.8 11.3 0.00 0.00 0.00 26 1014.8
20260905185145 31 219 3.2 11.3 0.00 0.00 0.00 26 1014.9
20260905184910 30 219 4.8 11.3 0.00 0.00 0.00 26 1015.0
20260905184410 30 219 6.4 11.3 0.00 0.00 0.00 26 1015.0
20260905183639 30 219 4.8 11.3 0.00 0.00 0.00 26 1015.1
20260905183138 31 219 3.2 9.7 0.00 0.00 0.00 26 1015.1
20260905182639 30 222 3.2 8.0 0.00 0.00 0.00 27 1015.1
20260905182139 30 222 3.2 9.7 0.00 0.00 0.00 26 1015.1
20260905181909 30 222 3.2 9.7 0.00 0.00 0.00 26 1015.1
20260905181409 30 228 3.2 8.0 0.00 0.00 0.00 28 1015.1
20260905180639 30 228 1.6 6.4 0.00 0.00 0.00 29 1015.2
20260905180139 30 228 1.6 6.4 0.00 0.00 0.00 30 1015.2
20260905175635 29 228 3.2 6.4 0.00 0.00 0.00 31 1015.1
20260905175134 28 228 3.2 6.4 0.00 0.00 0.00 31 1015.1
20260905174634 28 228 1.6 6.4 0.00 0.00 0.00 32 1015.1
20260905174133 28 228 1.6 4.8 0.00 0.00 0.00 31 1015.1
20260905173632 28 228 1.6 4.8 0.00 0.00 0.00 32 1015.1
20260905173131 27 228 0.0 4.8 0.00 0.00 0.00 34 1015.1
20260905172626 27 228 0.0 4.8 0.00 0.00 0.00 35 1015.1
20260905172127 27 228 1.6 4.8 0.00 0.00 0.00 38 1015.1
20260905171628 26 228 1.6 6.4 0.00 0.00 0.00 39 1015.1
20260905171125 26 228 3.2 6.4 0.00 0.00 0.00 44 1015.2
20260905170624 26 228 3.2 6.4 0.00 0.00 0.00 45 1015.2
20260905170124 25 228 3.2 6.4 0.00 0.00 0.00 46 1015.2
20260905165622 25 228 1.6 8.0 0.00 0.00 0.00 50 1015.3
20260905165122 25 228 1.6 8.0 0.00 0.00 0.00 51 1015.2
20260905164622 24 228 3.2 6.4 0.00 0.00 0.00 52 1015.3
20260905164122 24 228 4.8 6.4 0.00 0.00 0.00 53 1015.3
20260905163620 23 228 3.2 6.4 0.00 0.00 0.00 54 1015.2
20260905163120 24 228 1.6 6.4 0.00 0.00 0.00 54 1015.2
20260905162617 23 228 0.0 0.0 0.00 0.00 0.00 56 1015.2
20260905162115 23 228 0.0 0.0 0.00 0.00 0.00 59 1015.1
20260905161615 23 228 0.0 3.2 0.00 0.00 0.00 61 1015.1
20260905161113 22 228 1.6 4.8 0.00 0.00 0.00 63 1015.0
20260905160611 22 228 3.2 4.8 0.00 0.00 0.00 65 1015.0
20260905160344 22 228 3.2 6.4 0.00 0.00 0.00 65 1015.1
20260905155837 21 228 3.2 4.8 0.00 0.00 0.00 66 1015.1
20260905155103 21 228 1.6 4.8 0.00 0.00 0.00 68 1015.0
20260905154602 21 228 1.6 6.4 0.00 0.00 0.00 69 1015.0
20260905154102 21 228 3.2 8.0 0.00 0.00 0.00 70 1015.0
20260905153559 21 228 3.2 8.0 0.00 0.00 0.00 70 1015.0
20260905153059 21 228 1.6 6.4 0.00 0.00 0.00 71 1014.9
20260905152556 21 228 1.6 6.4 0.00 0.00 0.00 71 1015.0
20260905152056 21 228 3.2 6.4 0.00 0.00 0.00 71 1014.9
20260905151556 21 228 3.2 6.4 0.00 0.00 0.00 71 1014.9
20260905151057 20 228 1.6 6.4 0.00 0.00 0.00 71 1014.9
20260905150552 20 228 1.6 6.4 0.00 0.00 0.00 72 1014.9
20260905150104 20 228 3.2 6.4 0.00 0.00 0.00 71 1014.8
20260905145549 19 228 3.2 6.4 0.00 0.00 0.00 72 1014.8
20260905145049 19 228 1.6 6.4 0.00 0.00 0.00 75 1014.7
20260905144548 19 228 1.6 4.8 0.00 0.00 0.00 79 1014.7
20260905143547 19 228 0.0 1.6 0.00 0.00 0.00 82 1014.5
20260905143045 18 228 0.0 1.6 0.00 0.00 0.00 83 1014.5
20260905142544 18 228 0.0 0.0 0.00 0.00 0.00 83 1014.5
20260905142043 18 228 0.0 0.0 0.00 0.00 0.00 84 1014.5
20260905141537 18 228 0.0 0.0 0.00 0.00 0.00 84 1014.6
20260905141308 17 228 0.0 0.0 0.00 0.00 0.00 84 1014.6
20260905140537 17 228 0.0 0.0 0.00 0.00 0.00 84 1014.5
20260905140037 17 228 0.0 0.0 0.00 0.00 0.00 84 1014.5
20260905135534 17 228 0.0 0.0 0.00 0.00 0.00 84 1014.4
20260905135036 17 228 0.0 0.0 0.00 0.00 0.00 84 1014.4
20260905134536 17 228 0.0 0.0 0.00 0.00 0.00 84 1014.3
20260905134306 17 228 0.0 0.0 0.00 0.00 0.00 84 1014.3
20260905133547 17 228 0.0 0.0 0.00 0.00 0.00 84 1014.3
20260905133032 17 228 0.0 0.0 0.00 0.00 0.00 84 1014.2
20260905132532 17 228 0.0 0.0 0.00 0.00 0.00 85 1014.2
20260905132033 17 228 0.0 0.0 0.00 0.00 0.00 85 1014.1
20260905131804 17 228 0.0 0.0 0.00 0.00 0.00 85 1014.0
20260905131034 17 228 0.0 0.0 0.00 0.00 0.00 85 1014.0
20260905130317 17 228 0.0 0.0 0.00 0.00 0.00 85 1014.0
20260905125534 17 228 0.0 0.0 0.00 0.00 0.00 85 1013.9
20260905125306 17 228 0.0 0.0 0.00 0.00 0.00 85 1013.9
20260905124804 16 228 0.0 0.0 0.00 0.00 0.00 85 1013.9
20260905124031 17 228 0.0 0.0 0.00 0.00 0.00 85 1013.9
20260905123529 16 228 0.0 0.0 0.00 0.00 0.00 85 1013.9
20260905123300 16 228 0.0 0.0 0.00 0.00 0.00 85 1013.8
20260905122527 17 228 0.0 0.0 0.00 0.00 0.00 85 1013.8
20260905122025 16 228 0.0 0.0 0.00 0.00 0.00 85 1013.9
20260905121522 16 228 0.0 0.0 0.00 0.00 0.00 85 1013.9
20260905121023 16 228 0.0 0.0 0.00 0.00 0.00 84 1013.9
20260905120524 16 228 0.0 0.0 0.00 0.00 0.00 84 1013.9
20260905120025 16 228 0.0 0.0 0.00 0.00 0.00 84 1013.9
20260905115520 16 228 0.0 0.0 0.00 0.00 0.00 84 1013.8
20260905115024 16 228 0.0 0.0 0.00 0.00 0.00 84 1013.9
20260905114520 17 228 0.0 0.0 0.00 0.00 0.00 84 1013.9
20260905114020 17 228 0.0 0.0 0.00 0.00 0.00 84 1013.9
20260905113518 17 228 0.0 0.0 0.00 0.00 0.00 84 1013.9
20260905113018 17 228 0.0 0.0 0.00 0.00 0.00 84 1013.8
20260905112520 17 228 0.0 0.0 0.00 0.00 0.00 83 1013.9
20260905112009 17 228 0.0 0.0 0.00 0.00 0.00 84 1013.9
20260905111509 17 228 0.0 0.0 0.00 0.00 0.00 83 1014.0
20260905111253 17 228 0.0 0.0 0.00 0.00 0.00 83 1013.9
20260905110505 17 228 0.0 0.0 0.00 0.00 0.00 83 1014.0
20260905110006 17 228 0.0 0.0 0.00 0.00 0.00 83 1014.0
20260905105515 17 228 0.0 0.0 0.00 0.00 0.00 83 1014.0
20260905105001 17 228 0.0 0.0 0.00 0.00 0.00 83 1014.0
20260905104501 17 228 0.0 0.0 0.00 0.00 0.00 82 1014.0
20260905103959 17 228 0.0 0.0 0.00 0.00 0.00 82 1014.1
20260905103500 17 228 0.0 0.0 0.00 0.00 0.00 82 1014.0
20260905102500 17 228 0.0 0.0 0.00 0.00 0.00 81 1014.1
20260905101957 17 228 0.0 0.0 0.00 0.00 0.00 82 1014.1
20260905100955 17 228 0.0 0.0 0.00 0.00 0.00 81 1014.0
20260905100452 17 228 0.0 0.0 0.00 0.00 0.00 81 1014.1
20260905095953 18 228 0.0 0.0 0.00 0.00 0.00 81 1014.1
20260905095449 18 228 0.0 0.0 0.00 0.00 0.00 80 1014.1
20260905095220 18 228 0.0 1.6 0.00 0.00 0.00 80 1014.1
20260905094449 18 228 0.0 1.6 0.00 0.00 0.00 80 1014.1
20260905093946 18 228 0.0 1.6 0.00 0.00 0.00 79 1014.1
20260905093444 18 228 0.0 0.0 0.00 0.00 0.00 79 1014.1
20260905092945 18 228 0.0 0.0 0.00 0.00 0.00 79 1014.0
20260905092444 18 228 0.0 0.0 0.00 0.00 0.00 79 1014.1
20260905092213 18 228 0.0 0.0 0.00 0.00 0.00 80 1014.0
20260905091712 18 228 0.0 0.0 0.00 0.00 0.00 79 1014.0
20260905090940 18 228 0.0 0.0 0.00 0.00 0.00 79 1014.1
20260905090442 18 228 0.0 1.6 0.00 0.00 0.00 79 1014.1
20260905085941 18 228 0.0 1.6 0.00 0.00 0.00 78 1014.2
20260905085709 18 228 0.0 0.0 0.00 0.00 0.00 79 1014.2
20260905084937 18 228 0.0 0.0 0.00 0.00 0.00 78 1014.3
20260905084437 18 228 0.0 3.2 0.00 0.00 0.00 78 1014.3
20260905083935 18 228 0.0 3.2 0.00 0.00 0.00 78 1014.3
20260905083436 18 228 0.0 3.2 0.00 0.00 0.00 77 1014.3
20260905082933 18 228 0.0 1.6 0.00 0.00 0.00 77 1014.4
20260905082703 18 228 0.0 1.6 0.00 0.00 0.00 77 1014.4
20260905081931 18 228 0.0 3.2 0.00 0.00 0.00 77 1014.5
20260905081424 18 228 1.6 6.4 0.00 0.00 0.00 77 1014.6
20260905080922 18 228 3.2 6.4 0.00 0.00 0.00 76 1014.5
20260905080422 19 228 3.2 6.4 0.00 0.00 0.00 76 1014.6
20260905080152 19 228 1.6 4.8 0.00 0.00 0.00 75 1014.5
20260905075420 19 228 1.6 3.2 0.00 0.00 0.00 74 1014.6
20260905074921 19 228 1.6 4.8 0.00 0.00 0.00 74 1014.6
20260905074420 19 228 1.6 4.8 0.00 0.00 0.00 74 1014.6
20260905073921 19 228 1.6 6.4 0.00 0.00 0.00 73 1014.5
20260905073422 19 228 3.2 6.4 0.00 0.00 0.00 73 1014.5
20260905072921 19 228 4.8 8.0 0.00 0.00 0.00 73 1014.5
20260905072421 19 228 4.8 8.0 0.00 0.00 0.00 73 1014.4
20260905071921 19 228 4.8 8.0 0.00 0.00 0.00 72 1014.4
20260905071415 19 228 4.8 8.0 0.00 0.00 0.00 72 1014.5
20260905070408 19 228 1.6 4.8 0.00 0.00 0.00 72 1014.4
20260905065908 19 228 0.0 3.2 0.00 0.00 0.00 71 1014.2
20260905065409 19 228 0.0 3.2 0.00 0.00 0.00 70 1014.1
20260905065139 19 228 0.0 3.2 0.00 0.00 0.00 71 1014.2
20260905064406 20 228 0.0 3.2 0.00 0.00 0.00 70 1014.1
20260905064136 20 228 1.6 3.2 0.00 0.00 0.00 71 1014.2
20260905063405 20 228 0.0 3.2 0.00 0.00 0.00 70 1014.1
20260905062905 20 228 1.6 4.8 0.00 0.00 0.00 70 1014.1
20260905062405 20 228 1.6 6.4 0.00 0.00 0.00 70 1014.0
20260905062140 20 228 1.6 6.4 0.00 0.00 0.00 70 1014.1
20260905061419 20 228 1.6 4.8 0.00 0.00 0.00 69 1014.2
20260905060903 20 228 3.2 4.8 0.00 0.00 0.00 69 1014.1
20260905060404 20 228 3.2 6.4 0.00 0.00 0.00 68 1014.1
20260905060133 20 228 3.2 6.4 0.00 0.00 0.00 68 1014.1
20260905055403 20 228 3.2 4.8 0.00 0.00 0.00 68 1014.0
20260905054904 20 228 3.2 6.4 0.00 0.00 0.00 68 1014.0
20260905054403 20 228 3.2 6.4 0.00 0.00 0.00 68 1014.0
20260905053902 20 228 3.2 6.4 0.00 0.00 0.00 67 1014.0
20260905053631 20 228 3.2 6.4 0.00 0.00 0.00 67 1014.0
20260905052858 21 228 3.2 6.4 0.00 0.00 0.00 67 1014.0
20260905052359 21 228 3.2 9.7 0.00 0.00 0.00 67 1014.0
20260905051857 21 228 3.2 9.7 0.00 0.00 0.00 66 1014.0
20260905051356 21 228 3.2 6.4 0.00 0.00 0.00 65 1013.8
20260905050856 21 228 3.2 6.4 0.00 0.00 0.00 65 1013.9
20260905050352 21 228 4.8 8.0 0.00 0.00 0.00 65 1013.8
20260905045852 21 228 4.8 11.3 0.00 0.00 0.00 65 1013.9
20260905045624 21 228 6.4 11.3 0.00 0.00 0.00 65 1013.9
20260905044852 21 228 4.8 9.7 0.00 0.00 0.00 65 1013.8
20260905044348 21 228 4.8 11.3 0.00 0.00 0.00 64 1013.8
20260905043849 21 229 6.4 11.3 0.00 0.00 0.00 64 1013.7
20260905043619 21 229 6.4 11.3 0.00 0.00 0.00 63 1013.6
20260905043119 21 229 4.8 9.7 0.00 0.00 0.00 63 1013.6
20260905042343 21 229 3.2 9.7 0.00 0.00 0.00 62 1013.5
20260905042116 22 229 4.8 9.7 0.00 0.00 0.00 61 1013.5
20260905040845 22 229 4.8 9.7 0.00 0.00 0.00 60 1013.4
20260905040340 22 229 3.2 9.7 0.00 0.00 0.00 58 1013.4
20260905035840 22 229 4.8 9.7 0.00 0.00 0.00 57 1013.3
20260905035340 22 229 4.8 8.0 0.00 0.00 0.00 56 1013.2
20260905034840 23 229 4.8 6.4 0.00 0.00 0.00 55 1013.1
20260905034336 23 229 4.8 11.3 0.00 0.00 0.00 54 1013.0
20260905033837 23 229 6.4 12.9 0.00 0.00 0.00 54 1013.0
20260905033336 23 229 6.4 12.9 0.00 0.00 0.00 54 1012.9
20260905032837 23 229 8.0 17.7 0.00 0.00 0.00 53 1012.8
20260905032335 23 230 8.0 17.7 0.00 0.00 0.00 53 1012.7
20260905032108 23 228 8.0 16.1 0.00 0.00 0.00 54 1012.7
20260905031336 23 234 6.4 16.1 0.00 0.00 0.00 53 1012.6
20260905030836 23 234 6.4 16.1 0.00 0.00 0.00 53 1012.5
20260905030335 23 234 6.4 16.1 0.00 0.00 0.00 52 1012.5
20260905025836 24 234 8.0 14.5 0.00 0.00 0.00 51 1012.3
20260905025337 24 233 8.0 14.5 0.00 0.00 0.00 51 1012.3
20260905024336 24 230 8.0 16.1 0.00 0.00 0.00 49 1012.1
20260905024108 25 225 9.7 16.1 0.00 0.00 0.00 47 1012.1
20260905022833 25 221 9.7 17.7 0.00 0.00 0.00 44 1012.1
20260905022333 25 225 8.0 17.7 0.00 0.00 0.00 41 1012.1
20260905021833 26 244 8.0 17.7 0.00 0.00 0.00 36 1012.1
20260905021335 26 234 8.0 14.5 0.00 0.00 0.00 33 1012.1
20260905020833 26 235 6.4 12.9 0.00 0.00 0.00 31 1012.1
20260905020333 26 232 8.0 20.9 0.00 0.00 0.00 32 1012.1
20260905015834 26 225 9.7 20.9 0.00 0.00 0.00 33 1012.1
20260905015606 26 223 12.9 20.9 0.00 0.00 0.00 32 1012.1
20260905014834 26 221 11.3 20.9 0.00 0.00 0.00 33 1012.1
20260905014333 26 225 11.3 19.3 0.00 0.00 0.00 36 1012.0
20260905013834 26 229 12.9 22.5 0.00 0.00 0.00 39 1011.9
20260905013335 26 227 12.9 24.1 0.00 0.00 0.00 44 1012.0
20260905012835 27 218 12.9 24.1 0.00 0.00 0.00 48 1012.0
20260905011834 27 220 14.5 24.1 0.00 0.00 0.00 47 1012.1
20260905011334 27 215 14.5 24.1 0.00 0.00 0.00 47 1012.1
20260905010835 27 218 12.9 25.7 0.00 0.00 0.00 48 1012.1
20260905010335 27 205 12.9 25.7 0.00 0.00 0.00 47 1012.1
20260905005835 27 225 12.9 25.7 0.00 0.00 0.00 49 1012.1
20260905005333 27 221 14.5 29.0 0.00 0.00 0.00 49 1012.1
20260905004834 27 231 14.5 29.0 0.00 0.00 0.00 49 1012.1
20260905004333 27 232 14.5 30.6 0.00 0.00 0.00 48 1012.1
20260905004105 28 209 12.9 30.6 0.00 0.00 0.00 48 1012.1
20260905003332 28 225 12.9 25.7 0.00 0.00 0.00 47 1012.1
20260905002835 28 210 12.9 24.1 0.00 0.00 0.00 47 1012.1
20260905002333 28 225 12.9 24.1 0.00 0.00 0.00 47 1012.0
20260905001833 28 225 14.5 27.4 0.00 0.00 0.00 46 1012.0
20260905001347 28 217 14.5 27.4 0.00 0.00 0.00 45 1011.9
20260905000832 28 222 14.5 25.7 0.00 0.00 0.00 45 1012.0
20260905000333 29 229 14.5 24.1 0.00 0.00 0.00 44 1011.9
20260904235832 29 224 14.5 24.1 0.00 0.00 0.00 43 1012.0
20260904235332 30 205 12.9 24.1 0.00 0.00 0.00 41 1012.0
20260904234834 30 242 12.9 24.1 0.00 0.00 0.00 40 1012.0
20260904234333 30 211 12.9 24.1 0.00 0.00 0.00 39 1012.0
20260904233834 30 219 12.9 24.1 0.00 0.00 0.00 40 1011.9
20260904233334 30 213 12.9 22.5 0.00 0.00 0.00 39 1011.9
20260904232834 30 219 11.3 22.5 0.00 0.00 0.00 37 1011.8
20260904232333 31 263 11.3 22.5 0.00 0.00 0.00 37 1011.8
20260904232103 31 221 11.3 22.5 0.00 0.00 0.00 35 1011.8
20260904231333 31 216 11.3 17.7 0.00 0.00 0.00 35 1011.8
20260904230833 31 246 9.7 17.7 0.00 0.00 0.00 36 1011.9
20260904230334 31 240 9.7 17.7 0.00 0.00 0.00 34 1012.0
20260904225835 31 222 8.0 17.7 0.00 0.00 0.00 34 1012.0
20260904225333 31 227 8.0 20.9 0.00 0.00 0.00 33 1012.1
20260904224605 31 217 9.7 20.9 0.00 0.00 0.00 32 1012.1
20260904223833 31 219 9.7 20.9 0.00 0.00 0.00 32 1012.1
20260904223333 30 252 9.7 17.7 0.00 0.00 0.00 34 1012.2
20260904222334 31 254 8.0 17.7 0.00 0.00 0.00 33 1012.2
20260904221834 31 228 9.7 17.7 0.00 0.00 0.00 33 1012.2
20260904221604 31 257 8.0 17.7 0.00 0.00 0.00 32 1012.3
20260904220832 31 227 6.4 16.1 0.00 0.00 0.00 32 1012.5
20260904220333 31 230 8.0 16.1 0.00 0.00 0.00 32 1012.5
20260904215833 31 223 6.4 16.1 0.00 0.00 0.00 31 1012.5
20260904215335 31 231 8.0 14.5 0.00 0.00 0.00 32 1012.5
20260904214833 31 231 9.7 14.5 0.00 0.00 0.00 32 1012.5
20260904214603 31 221 6.4 16.1 0.00 0.00 0.00 32 1012.6
20260904213833 31 203 6.4 16.1 0.00 0.00 0.00 33 1012.6
20260904213333 31 229 8.0 20.9 0.00 0.00 0.00 33 1012.6
20260904212833 30 225 6.4 20.9 0.00 0.00 0.00 34 1012.7
20260904212335 31 232 4.8 19.3 0.00 0.00 0.00 35 1012.7
20260904211834 30 227 8.0 19.3 0.00 0.00 0.00 36 1012.7
20260904211334 30 221 9.7 19.3 0.00 0.00 0.00 38 1012.8
20260904210834 30 215 8.0 17.7 0.00 0.00 0.00 38 1012.8
20260904210336 30 225 8.0 17.7 0.00 0.00 0.00 37 1012.9
20260904205833 30 249 8.0 14.5 0.00 0.00 0.00 38 1012.9
20260904205604 30 211 6.4 14.5 0.00 0.00 0.00 39 1012.9
20260904204833 30 213 4.8 12.9 0.00 0.00 0.00 37 1012.9
20260904204605 30 209 3.2 12.9 0.00 0.00 0.00 36 1013.0
20260904203833 30 208 4.8 12.9 0.00 0.00 0.00 36 1013.0
20260904203333 30 208 6.4 12.9 0.00 0.00 0.00 36 1013.0